Regional Weather Roundup
Issued by NWS

Home | Current Version | Previous Version | Graphics & Text | Print | Product List | Glossary On
Versions: 1 2 3 4 5 6 7 8 9 10 11 12 13 14 15 16 17 18 19 20 21 22 23 24 25 26 27 28 29 30 31 32 33 34 35 36 37 38 39 40 41 42 43 44 45 46 47 48 49 50
000
ASUS43 KLOT 030412
RWRIL

ILLINOIS REGIONAL WEATHER ROUNDUP
NATIONAL WEATHER SERVICE CHICAGO/ROMEOVILLE IL
1100 PM CDT SUN AUG 02 2015

NOTE: "FAIR" INDICATES FEW OR NO CLOUDS BELOW 12,000 FEET WITH NO
SIGNIFICANT WEATHER AND/OR OBSTRUCTIONS TO VISIBILITY.

* THESE STATIONS ARE NOT UNDER NWS QUALITY CONTROL. THEY ALSO MAY NOT
  REPORT WEATHER SUCH AS PRECIPITATION OR FOG.

ILZ001-002-007-009-015-016-024-030500-
NORTHWEST ILLINOIS

CITY           SKY/WX    TMP DP  RH WIND       PRES   REMARKS
MOLINE         PTCLDY    76  67  73 W12       29.75R
STERLING*      PTCLDY    81  73  78 W9        29.70R HX  85
SAVANNA*       PTCLDY    81  69  66 NW8       29.73R HX  84
$$

ILZ003-004-008-010-011-017-018-030500-
NORTH CENTRAL ILLINOIS

CITY           SKY/WX    TMP DP  RH WIND       PRES   REMARKS
ROCKFORD       MOCLDY    81  66  60 NW15      29.72R THUNDER HX  83
FREEPORT*      MOCLDY    76  66  71 NW6       29.75R
ROCHELLE*      MOCLDY    79  74  84 NW9       29.72R HX  83
DE KALB*       TSTM      77  71  81 W18G26    29.71R
PERU*          MOCLDY    82  70  66 W15G28    29.71F HX  85
$$

ILZ005-006-012>014-019>023-030500-
NORTHEAST ILLINOIS

CITY           SKY/WX    TMP DP  RH WIND       PRES   REMARKS
CHICAGO-OHARE  TSTM      68  66  93 NW5G18    29.75R
CHICAGO-MIDWAY CLOUDY    85  70  60 SW15G22   29.66F HX  89
AURORA         MOCLDY    82  72  71 SW16G26   29.66F THUNDER HX  87
LANSING*       PTCLDY    81  68  65 SW18G24   29.68F HX  84
JOLIET*        TSTM      81  74  78 SW14G23   29.68F HX  86
WAUKEGAN       CLOUDY    67  65  93 SW5       29.72S
DUPAGE AIRPORT TSTM      72  66  81 NW30G40   29.69R
KANKAKEE*      CLEAR     78  70  77 SW16      29.74F HX  80
WHEELING       NOT AVBL
MORRIS*        PTCLDY    81  72  73 SW17G23   29.68F HX  85
ROMEOVILLE*    MOCLDY    82  70  67 SW17G24   29.67F THUNDER HX  85
NORTHERLY ISL    N/A     71  62  73 N17         N/A
$$

LMZ740>746-030500-
SOUTHERN LAKE MICHIGAN

STATION/POSITION SKY/WX   TEMP    WIND        PRES    VSBY  WAVE
                          AIR SEA DIR/SP/G                  HT/PER
                          (F)     (DEG/KT/KT) (MB)    (MI)  (FT/S)
HARRISON CRIB              85     220/ 22/ 29   N/A
BURNHAM HARBOR             69     350/ 22/ 28   N/A
CALUMET HARBOR             83     210/  7/ 18   N/A
BURNS HARBOR               84     220/ 22/ 32 1005.4
MICHIGAN CITY              83     190/ 24/ 28   N/A
MICHIGAN CITY 6N           70 73   10/ 21/ 29   N/A           5/ 4
ST. JOSEPH                 66 73   40/  8/ 14   N/A           6/ 5
$$

ILZ025>027-034>036-040-047-049-050-058-095>099-030500-
WEST-CENTRAL ILLINOIS

CITY           SKY/WX    TMP DP  RH WIND       PRES   REMARKS
QUINCY         CLOUDY    82  64  54 W10       29.80F HX  83
GALESBURG*     MOCLDY    77  72  83 SW8       29.77F
MACOMB*        MOCLDY    77  72  84 SW7       29.81F
JACKSONVILLE*  CLOUDY    80  73  79 SW6       29.81F HX  84
PITTSFIELD*    CLOUDY    81  70  69 S6        29.83F HX  84
$$

ILZ028>032-037-038-041>044-048-051>054-059>061-030500-
CENTRAL ILLINOIS

CITY           SKY/WX    TMP DP  RH WIND       PRES   REMARKS
PONTIAC        PTCLDY    81  73  76 SW13G18   29.74F HX  85
BLOOMINGTON    MOCLDY    79  71  76 SW15      29.79F HX  82
DECATUR        PTCLDY    81  68  64 SW12      29.82S HX  84
PEORIA         CLOUDY    82  73  74 SW14      29.75F HX  87
LACON*         CLOUDY    82  72  71 SW12      29.71F HX  86
LINCOLN*       MOCLDY    80  69  69 SW6       29.78F HX  82
SPRINGFIELD    CLOUDY    80  70  71 SW6       29.81S HX  83
TAYLORVILLE    MOCLDY    77  68  73 SW6       29.83S
$$

ILZ033-039-045-046-055>057-062-063-030500-
EAST-CENTRAL ILLINOIS

CITY           SKY/WX    TMP DP  RH WIND       PRES   REMARKS
CHAMPAIGN      MOCLDY    74  71  91 S6        29.82R
DANVILLE*      CLEAR     76  71  84 SW10G17   29.79R
RANTOUL*       PTCLDY    79  72  80 SW8       29.80S HX  82
MATTOON        PTCLDY    78  70  76 SW7       29.83R HX  80
PARIS*         PTCLDY    77  73  85 S8        29.84R
$$

ILZ079-100>102-030500-
SOUTHWEST ILLINOIS

CITY           SKY/WX    TMP DP  RH WIND       PRES   REMARKS
ALTON          MOCLDY    76  68  76 SW6       29.85F
BELLEVILLE     PTCLDY    80  73  80 S3        29.84R HX  83
CAHOKIA*       MOCLDY    82  70  66 SW3       29.85R HX  86
SPARTA*        PTCLDY    79  71  75 S7        29.87F HX  82
$$

ILZ064>066-069>071-074>076-080>082-084>086-088>090-092>094-030500-
SOUTH-CENTRAL ILLINOIS

CITY           SKY/WX    TMP DP  RH WIND       PRES   REMARKS
CARBONDALE     CLEAR     79  71  76 SW7       29.87S HX  82
CAIRO*         CLEAR     79  73  81 S5        29.89R HX  82
EFFINGHAM*     MOCLDY    78  69  73 S5        29.87R HX  80
MARION         CLEAR     79  73  83 SW6       29.89S HX  82
MT. VERNON     PTCLDY    75  68  78 SW5       29.87S
CENTRALIA*     PTCLDY    78  71  77 SW9       29.85S HX  81
SALEM*         MOCLDY    82  72  73 SW6       29.85S HX  86
METROPOLIS*    CLEAR     78  74  85 S5        29.90R HX  81
$$

ILZ067-068-072-073-078-083-087-091-030500-
SOUTHEAST ILLINOIS

CITY           SKY/WX    TMP DP  RH WIND       PRES   REMARKS
LAWRENCEVILLE  PTCLDY    75  71  87 S6        29.85F
FLORA*         PTCLDY    78  71  79 SW7       29.86R HX  80
FAIRFIELD*     PTCLDY    77  73  86 S6        29.85S
HARRISBURG*    CLEAR     74  73  97 CALM      29.89S
ROBINSON*      PTCLDY    75  71  86 S6        29.86R
CARMI*         CLEAR     74  69  81 S6        29.86F
$$

ABBREVIATIONS USED IN REMARKS
   TC - TEMPERATURE IN CELSIUS
  WCI - WIND CHILL INDEX
   HX - HEAT INDEX
  VSB - VISIBILITY
$$




USA.gov is the U.S. government's official web portal to all federal, state and local government web resources and services.